Hourly Data Report for September 25, 2017

All times are specified in Local Standard Time (LST). Add 1 hour to adjust for Daylight Saving Time where and when it is observed.

DOAKTOWN AUTO RCS
NEW BRUNSWICK

46°35'06.090" N
66°00'35.071" W
43.00 m
8101201
71038
ADN

Download Data

Hourly Data (September 2017)
Hourly Data Report for September 25, 2017
Temp Definition
°C
Dew Point Temp Definition
°C
Rel Hum Definition
%
Wind Dir Definition
10's deg

Wind Spd Definition
km/h
Visibility Definition
km
Stn Press Definition
kPa
Hmdx Definition


Wind Chill Definition


Weather Definition


TIME
00:00 17.1 13.4 79 5 7   101.22     LegendNANA
01:00 15.9 12.9 82 5 1   101.23     LegendNANA
02:00 14.1 12.2 89   0   101.25     LegendNANA
03:00 15.3 13.0 86 3 6   101.25     LegendNANA
04:00 14.8 12.7 87 7 1   101.29     LegendNANA
05:00 13.4 11.7 90   0   101.31     LegendNANA
06:00 12.7 11.5 93   0   101.35     LegendNANA
07:00 12.5 11.5 94   0   101.40     LegendNANA
08:00 15.0 13.1 88   0   101.38     LegendNANA
09:00 17.2 12.6 75 17 3   101.40     LegendNANA
10:00 18.9 12.8 68 18 5   101.39     LegendNANA
11:00 20.6 13.5 64 20 7   101.32     LegendNANA
12:00 23.0 14.8 60 20 7   101.26 27   LegendNANA
13:00 24.0 15.3 58 23 8   101.17 28   LegendNANA
14:00 26.1 15.9 53 23 13   101.06 31   LegendNANA
15:00 27.7 16.4 50 24 12   100.99 33   LegendNANA
16:00 28.0 16.8 51 22 12   100.94 33   LegendNANA
17:00 27.8 16.9 52 20 10   100.90 33   LegendNANA
18:00 25.9 17.5 60 21 2   100.88 32   LegendNANA
19:00 23.8 18.3 72 23 3   100.86 30   LegendNANA
20:00 23.7 18.7 74 23 7   100.85 30   LegendNANA
21:00 23.5 18.3 73 24 8   100.83 30   LegendNANA
22:00 22.9 18.3 75 24 10   100.81 29   LegendNANA
23:00 22.4 18.3 77 24 10   100.77 29   LegendNANA

Notes on Data Quality.

Legend

  • E = Estimated
  • M = Missing
  • NA = Not Available
  • ‡ = Partner data that is not subject to review by the National Climate Archives
Date modified: